Weather History for KBKE - March, 2013

Change the Weather History Date:

Saturday, March 9, 2013

  Actual Average Record
Temperature  
Mean Temperature 36 °F 36 °F  
Max Temperature 51 °F 48 °F 70 °F (1972)
Min Temperature 21 °F 24 °F 9 °F (1951)
Degree Days  
Heating Degree Days 29 29  
Month to date heating degree days 272 273  
Since 1 July heating degree days 5664 5793  
Cooling Degree Days 0 0  
Month to date cooling degree days 0 0  
Year to date cooling degree days 0 0  
Moisture  
Dew Point 22 °F    
Average Humidity 54    
Maximum Humidity 78    
Minimum Humidity 29    
Precipitation  
Precipitation 0.00 in 0.03 in 0.21 in (1989)
Month to date precipitation 0.05 0.22  
Year to date precipitation 1.32 1.60  
Sea Level Pressure  
Sea Level Pressure 30.31 in    
Wind  
Wind Speed 14 mph (NW)    
Max Wind Speed 25 mph    
Max Gust Speed 32 mph    
Visibility 10 miles    
Events      
T = Trace of Precipitation, MM = Missing Value Source: NWS Daily Summary

Daily Weather History Graph

Daily Weather History Graph

Search for Another Location

Airport or City:

Trip Planner

Search our weather history database for the weather conditions in past years. The results will help you decide how hot, cold, wet, or windy it might be!

Date:

Astronomy

Mar. 09, 2013 Rise Set
Actual Time 6:14 AM PST 5:49 PM PST
Civil Twilight 5:44 AM PST 6:19 PM PST
Nautical Twilight 5:11 AM PST 6:53 PM PST
Astronomical Twilight 4:36 AM PST 7:27 PM PST
Moon 4:45 AM PST (3/9) 3:54 PM PST (3/9)
Length of Visible Light 12h 34m
Length of Day
11h 35m
Waning Crescent, 5% of the Moon is Illuminated
Mar 9
Waning Crescent
Mar 11
New
Mar 19
First Quarter
Mar 27
Full
Apr 2
Last Quarter

Hourly Weather History & Observations

Time (PST) Temp. Windchill Dew Point Humidity Pressure Visibility Wind Dir Wind Speed Gust Speed Precip Events Conditions
12:53 AM 28.9 °F 18.2 °F 23.0 °F 78% 30.12 in 10.0 mi NW 13.8 mph - N/A   Clear
1:53 AM 28.9 °F 18.6 °F 23.0 °F 78% 30.14 in 10.0 mi NW 12.7 mph - N/A   Clear
2:53 AM 30.0 °F 18.3 °F 21.9 °F 72% 30.15 in 10.0 mi NW 17.3 mph - N/A   Clear
3:53 AM 30.9 °F 19.8 °F 23.0 °F 72% 30.17 in 10.0 mi WNW 16.1 mph - N/A   Clear
4:53 AM 32.0 °F 18.9 °F 23.0 °F 69% 30.20 in 10.0 mi NW 24.2 mph - N/A   Clear
5:53 AM 30.9 °F 21.2 °F 23.0 °F 72% 30.25 in 10.0 mi WNW 12.7 mph - N/A   Clear
6:53 AM 30.0 °F 21.1 °F 21.9 °F 72% 30.27 in 10.0 mi WNW 10.4 mph - N/A   Clear
7:53 AM 36.0 °F 27.1 °F 27.0 °F 70% 30.29 in 10.0 mi NW 13.8 mph - N/A   Clear
8:53 AM 41.0 °F 32.8 °F 27.0 °F 57% 30.30 in 10.0 mi NW 16.1 mph - N/A   Clear
9:53 AM 43.0 °F 35.1 °F 27.0 °F 53% 30.31 in 10.0 mi NNW 17.3 mph - N/A   Clear
10:53 AM 46.0 °F 39.6 °F 27.0 °F 47% 30.32 in 10.0 mi NNW 15.0 mph - N/A   Clear
11:53 AM 48.0 °F - 26.1 °F 42% 30.32 in 10.0 mi NW 15.0 mph 25.3 mph N/A   Clear
12:53 PM 48.9 °F - 25.0 °F 39% 30.32 in 10.0 mi North 19.6 mph 28.8 mph N/A   Clear
1:53 PM 50.0 °F - 25.0 °F 38% 30.32 in 10.0 mi NNW 23.0 mph 28.8 mph N/A   Clear
2:53 PM 50.0 °F - 19.9 °F 31% 30.33 in 10.0 mi NNW 21.9 mph 27.6 mph N/A   Clear
3:53 PM 48.9 °F - 19.0 °F 31% 30.34 in 10.0 mi North 18.4 mph - N/A   Clear
4:53 PM 46.9 °F - 19.9 °F 34% 30.35 in 10.0 mi North 16.1 mph 24.2 mph N/A   Clear
5:53 PM 39.9 °F 32.5 °F 18.0 °F 41% 30.39 in 10.0 mi North 12.7 mph - N/A   Clear
6:53 PM 37.9 °F 31.5 °F 17.1 °F 43% 30.41 in 10.0 mi North 9.2 mph - N/A   Clear
7:53 PM 35.1 °F 30.1 °F 17.1 °F 48% 30.43 in 10.0 mi WSW 5.8 mph - N/A   Clear
8:53 PM 33.1 °F 27.7 °F 19.0 °F 56% 30.43 in 10.0 mi SW 5.8 mph - N/A   Clear
9:53 PM 28.0 °F 22.8 °F 18.0 °F 66% 30.44 in 10.0 mi SSW 4.6 mph - N/A   Clear
10:53 PM 24.1 °F 18.2 °F 17.1 °F 75% 30.45 in 10.0 mi South 4.6 mph - N/A   Clear
11:53 PM 23.0 °F 18.4 °F 17.1 °F 78% 30.45 in 10.0 mi SSE 3.5 mph - N/A   Clear